Location: ????????
(55.6333°N, 37.7000°E)
Time: 03:56:24
(UTC+00:00)

Cosmos 2082 Rocket - Pass Details

Date: 19 May 2025
Orbit: 832 x 853 km, 71.0° (Epoch: 19 June)

Event Time Altitude Azimuth Distance (km) Brightness Sun altitude
Exits shadow 20:00:03 11° 194° (SSW) 2,382 4.1 -12.3°
Maximum altitude 20:05:22 59° 116° (ESE) 965 2.3 -12.5°
Drops below altitude 10° 20:10:54 10° 39° (NE) 2,461 5.1 -12.8°
Sets 20:13:22 0° 36° (NE) 3,402 5.9 -12.9°
